This demonstration page uses our WeatherBlox Daily Observations layout. Learn more.

Left ArrowRight Arrow

Hourly Observations for September 30, 2020

Temp ( °F °C ) Dew Point ( °F °C ) Humidity (%) Winds ( mph kmh ) Pressure ( in mb ) Visibility ( mi km ) Precip ( " mm )
12:53 am 00:53 Clear 58 14.4 40 4.4 51 51 WSW 6 9 29.85 1011 10 16 0.00 0.00
1:53 am 01:53 Clear 56 13.3 40 4.4 55 55 WSW 7 11 29.84 1011 10 16 0.00 0.00
2:53 am 02:53 Clear 55 12.8 40 4.4 57 57 W 5 7 29.85 1011 10 16 0.00 0.00
3:53 am 03:53 Clear 57 13.9 41 5 55 55 WNW 12 19 29.85 1011 10 16 0.00 0.00
4:53 am 04:53 Clear 57 13.9 40 4.4 53 53 W 9 15 29.83 1010 10 16 0.00 0.00
5:53 am 05:53 Clear 57 13.9 39 3.9 51 51 WNW 10 17 29.85 1011 10 16 0.00 0.00
6:53 am 06:53 Clear 57 13.9 40 4.4 53 53 NW 13 20 29.90 1013 10 16 0.00 0.00
7:53 am 07:53 Sunny 58 14.4 41 5 53 53 NNW 13 20 29.97 1015 10 16 0.00 0.00
8:53 am 08:53 Sunny 62 16.7 43 6.1 50 50 N 16 26 30.03 1017 10 16 0.00 0.00
9:53 am 09:53 Sunny 65 18.3 41 5 42 42 N 22 35 30.07 1018 10 16 0.00 0.00
10:53 am 10:53 Sunny 66 18.9 35 1.7 32 32 N 29 46 30.11 1020 10 16 0.00 0.00
11:53 am 11:53 Sunny 67 19.4 32 0 27 27 NNW 26 43 30.14 1021 10 16 0.00 0.00
12:53 pm 12:53 Sunny 68 20 30 -1.1 24 24 NNW 25 41 30.15 1021 10 16 0.00 0.00
1:53 pm 13:53 Sunny 70 21.1 29 -1.7 22 22 N 26 43 30.15 1021 10 16 0.00 0.00
2:53 pm 14:53 Sunny 71 21.7 28 -2.2 20 20 NNW 24 39 30.13 1020 10 16 0.00 0.00
3:53 pm 15:53 Sunny 70 21.1 26 -3.3 19 19 NW 26 43 30.12 1020 10 16 0.00 0.00
4:53 pm 16:53 Sunny 67 19.4 26 -3.3 21 21 NNW 17 28 30.12 1020 10 16 0.00 0.00
5:53 pm 17:53 Sunny 66 18.9 27 -2.8 23 23 NW 17 28 30.13 1020 10 16 0.00 0.00
6:53 pm 18:53 Sunny 62 16.7 27 -2.8 26 26 NW 10 17 30.15 1021 10 16 0.00 0.00
7:53 pm 19:53 Hazy 57 13.9 28 -2.2 33 33 WNW 7 11 30.16 1021 4 6 0.00 0.00
8:35 pm 20:35 Hazy 54 12.2 29 -1.7 38 38 WNW 7 11 30.18 1022 3 4 0.00 0.00
8:53 pm 20:53 Hazy 52 11.1 29 -1.7 41 41 W 7 11 30.19 1022 3 5 0.00 0.00
9:53 pm 21:53 Clear 51 10.6 28 -2.2 41 41 undefined N/A 30.20 1023 10 16 0.00 0.00
10:53 pm 22:53 Clear 50 10 28 -2.2 43 43 W 9 15 30.21 1023 10 16 0.00 0.00
11:53 pm 23:53 Clear 51 10.6 27 -2.8 39 39 W 10 17 30.21 1023 10 16 0.00 0.00

Powered by AerisWeather